Weather History for Toledo Metcalf, OH

Change the Weather History Date:

Saturday, November 16, 2013

  Actual Average (KTOL) Record (KTOL)
Temperature  
Mean Temperature 46 °F 41 °F  
Max Temperature 57 °F 50 °F 70 °F (1930)
Min Temperature 34 °F 33 °F 9 °F (1933)
Degree Days  
Heating Degree Days 20 24  
Month to date heating degree days 331  
Since 1 July heating degree days 857  
Cooling Degree Days 0 0  
Month to date cooling degree days 0  
Year to date cooling degree days 793  
Moisture  
Dew Point 43 °F    
Average Humidity 78    
Maximum Humidity 86    
Minimum Humidity 67    
Precipitation  
Precipitation 0.00 in 0.10 in 1.21 in (1961)
Month to date precipitation 1.48  
Year to date precipitation 30.18  
Snow  
Snow 0.00 in 0.00 in - ()
Month to date snowfall 0.6  
Since 1 July snowfall 0.8  
Since 1 September snowfall 0.8  
Snow Depth -    
Sea Level Pressure  
Sea Level Pressure 30.02 in    
Wind  
Wind Speed 10 mph (South)    
Max Wind Speed 22 mph    
Max Gust Speed 30 mph    
Visibility 10 miles    
Events      
T = Trace of Precipitation, MM = Missing Value Source: NWS Daily Summary

Daily Weather History Graph

Daily Weather History Graph

Search for Another Location

Airport:

Trip Planner

Search our weather history database for the weather conditions in past years. The results will help you decide how hot, cold, wet, or windy it might be!

Date:

Astronomy

Nov. 16, 2013 Rise Set
Actual Time 7:24 AM EST 5:12 PM EST
Civil Twilight 6:54 AM EST 5:42 PM EST
Nautical Twilight 6:20 AM EST 6:16 PM EST
Astronomical Twilight 5:47 AM EST 6:49 PM EST
Moon 4:47 PM EST (11/16) 6:18 AM EST (11/16)
Length of Visible Light 10h 48m
Length of Day
9h 48m
Waxing Gibbous, 99% of the Moon is Illuminated
Nov 16
Waxing Gibbous
Nov 17
Full
Nov 25
Last Quarter
Dec 2
New
Dec 9
First Quarter

Hourly Weather History & Observations

Time (EST) Temp. Windchill Dew Point Humidity Pressure Visibility Wind Dir Wind Speed Gust Speed Precip Events Conditions
12:53 AM 34.0 °F 28.8 °F 28.0 °F 79% 30.11 in 10.0 mi South 5.8 mph - N/A   Clear
1:53 AM 35.1 °F 32.2 °F 28.9 °F 78% 30.11 in 10.0 mi South 3.5 mph - N/A   Clear
2:53 AM 34.0 °F 28.8 °F 28.9 °F 82% 30.11 in 10.0 mi South 5.8 mph - N/A   Clear
3:53 AM 36.0 °F 31.1 °F 30.9 °F 82% 30.11 in 10.0 mi South 5.8 mph - N/A   Clear
4:53 AM 37.0 °F 32.4 °F 33.1 °F 86% 30.12 in 10.0 mi South 5.8 mph - N/A   Clear
5:53 AM 41.0 °F 37.1 °F 37.0 °F 86% 30.12 in 10.0 mi SSE 5.8 mph - N/A   Overcast
6:53 AM 43.0 °F 39.5 °F 39.0 °F 86% 30.11 in 10.0 mi SSE 5.8 mph - N/A   Overcast
7:53 AM 45.0 °F 40.6 °F 39.9 °F 82% 30.12 in 10.0 mi SSE 8.1 mph - N/A   Overcast
8:53 AM 46.9 °F - 41.0 °F 80% 30.12 in 10.0 mi SSE 11.5 mph - N/A   Overcast
9:53 AM 48.0 °F - 43.0 °F 83% 30.10 in 7.0 mi SSE 11.5 mph - N/A   Overcast
10:53 AM 48.9 °F - 44.1 °F 83% 30.11 in 10.0 mi SSE 9.2 mph - N/A   Overcast
11:53 AM 52.0 °F - 45.0 °F 77% 30.07 in 10.0 mi SSE 16.1 mph - N/A   Overcast
12:53 PM 55.9 °F - 46.9 °F 72% 30.02 in 10.0 mi SSE 15.0 mph - N/A   Overcast
1:53 PM 57.9 °F - 48.0 °F 70% 30.00 in 10.0 mi South 19.6 mph - N/A   Overcast
2:53 PM 57.9 °F - 46.9 °F 67% 29.97 in 10.0 mi South 15.0 mph - N/A   Mostly Cloudy
3:53 PM 55.0 °F - 46.9 °F 74% 29.97 in 10.0 mi South 18.4 mph - N/A   Mostly Cloudy
4:53 PM 55.9 °F - 48.0 °F 75% 29.97 in 10.0 mi South 18.4 mph 25.3 mph N/A   Overcast
5:53 PM 55.0 °F - 48.0 °F 77% 29.96 in 10.0 mi South 18.4 mph 27.6 mph N/A   Mostly Cloudy
6:53 PM 55.0 °F - 48.0 °F 77% 29.95 in 10.0 mi South 17.3 mph - N/A   Mostly Cloudy
7:53 PM 55.9 °F - 48.9 °F 77% 29.93 in 10.0 mi South 19.6 mph - N/A   Mostly Cloudy
8:53 PM 57.0 °F - 50.0 °F 77% 29.90 in 10.0 mi South 21.9 mph 29.9 mph N/A   Mostly Cloudy
9:53 PM 57.0 °F - 50.0 °F 77% 29.88 in 10.0 mi South 17.3 mph 25.3 mph N/A   Mostly Cloudy
10:18 PM 57.2 °F - 50.0 °F 77% 29.86 in 10.0 mi South 18.4 mph 25.3 mph N/A   Overcast
10:53 PM 57.9 °F - 50.0 °F 75% 29.85 in 10.0 mi South 20.7 mph 25.3 mph N/A   Overcast
11:53 PM 57.9 °F - 51.1 °F 78% 29.85 in 10.0 mi South 19.6 mph 25.3 mph 0.00 in   Mostly Cloudy